DJ6OI-23 Weather Reports


Display with metric or nautical units.
time (UTC)temp
F
wind
direction
speed
MPH
gust
MPH
rain 1hr
in
rain 24hr
in
rain mn
in
humidity
%
barometer
mb
20260905125025 73 0.0 0.0 0.00 0.00 0.00 54 999.5
20260905123450 71 0.0 0.0 0.00 0.00 0.00 57 999.4
20260905121915 71 0.0 0.0 0.00 0.00 0.00 57 999.4
20260905120340 73 0.0 0.0 0.00 0.00 0.00 57 999.4
20260905114805 75 0.0 0.0 0.00 0.00 0.00 55 999.3
20260905113231 73 0.0 0.0 0.00 0.00 0.00 58 999.2
20260905111656 73 0.0 0.0 0.00 0.00 0.00 60 999.0
20260905110121 75 0.0 0.0 0.00 0.00 0.00 57 999.1
20260905104546 73 0.0 0.0 0.00 0.00 0.00 62 999.0
20260905103011 73 0.0 0.0 0.00 0.00 0.00 63 999.0
20260905101436 74 0.0 0.0 0.00 0.00 0.00 63 998.9
20260905095901 74 0.0 0.0 0.00 0.00 0.00 66 998.9
20260905094326 73 0.0 0.0 0.00 0.00 0.00 71 998.8
20260905092752 72 0.0 0.0 0.00 0.00 0.00 74 998.8
20260905091216 72 0.0 0.0 0.00 0.00 0.00 74 998.7
20260905085641 69 0.0 0.0 0.00 0.00 0.00 76 998.8
20260905084106 70 0.0 0.0 0.00 0.00 0.00 81 998.5
20260905082532 68 0.0 0.0 0.00 0.00 0.00 85 998.5
20260905080957 68 0.0 0.0 0.00 0.00 0.00 86 998.3
20260905075422 69 0.0 0.0 0.00 0.00 0.00 87 998.0
20260905073847 68 0.0 0.0 0.00 0.00 0.00 91 997.9
20260905072312 63 0.0 0.0 0.00 0.00 0.00 10 997.8
20260905070737 62 0.0 0.0 0.00 0.00 0.00 10 997.8
20260905065202 61 0.0 0.0 0.00 0.00 0.00 10 997.6
20260905063627 61 0.0 0.0 0.00 0.00 0.00 10 997.5
20260905062052 59 0.0 0.0 0.00 0.00 0.00 10 997.5
20260905060517 60 0.0 0.0 0.00 0.00 0.00 10 997.4
20260905054942 59 0.0 0.0 0.00 0.00 0.00 10 997.4
20260905053408 57 0.0 0.0 0.00 0.00 0.00 10 997.5
20260905051833 55 0.0 0.0 0.00 0.00 0.00 10 997.0
20260905050258 55 0.0 0.0 0.00 0.00 0.00 10 996.9
20260905044723 54 0.0 0.0 0.00 0.00 0.00 10 996.8
20260905043148 54 0.0 0.0 0.00 0.00 0.00 10 996.5
20260905041613 54 0.0 0.0 0.00 0.00 0.00 10 996.4
20260905040038 54 0.0 0.0 0.00 0.00 0.00 10 996.4
20260905034504 55 0.0 0.0 0.00 0.00 0.00 10 996.3
20260905032928 55 0.0 0.0 0.00 0.00 0.00 10 996.1
20260905025818 55 0.0 0.0 0.00 0.00 0.00 10 995.9
20260905024243 55 0.0 0.0 0.00 0.00 0.00 10 995.8
20260905022709 56 0.0 0.0 0.00 0.00 0.00 10 995.8
20260905021134 57 0.0 0.0 0.00 0.00 0.00 10 995.9
20260905015559 56 0.0 0.0 0.00 0.00 0.00 10 995.8
20260905014024 56 0.0 0.0 0.00 0.00 0.00 10 995.6
20260905012449 57 0.0 0.0 0.00 0.00 0.00 10 995.6
20260905010914 58 0.0 0.0 0.00 0.00 0.00 10 995.5
20260905005339 58 0.0 0.0 0.00 0.00 0.00 10 995.5
20260905003804 58 0.0 0.0 0.00 0.00 0.00 10 995.5
20260905002229 57 0.0 0.0 0.00 0.00 0.00 10 995.4
20260905000654 57 0.0 0.0 0.00 0.00 0.00 10 995.4
20260904235119 58 0.0 0.0 0.00 0.00 0.00 10 995.3
20260904233545 59 0.0 0.0 0.00 0.00 0.00 10 995.2
20260904230435 59 0.0 0.0 0.00 0.00 0.00 10 994.9
20260904224900 60 0.0 0.0 0.00 0.00 0.00 10 994.6
20260904223325 60 0.0 0.0 0.00 0.00 0.00 10 994.5
20260904221750 60 0.0 0.0 0.00 0.00 0.00 10 994.2
20260904220215 60 0.0 0.0 0.00 0.00 0.00 10 994.0
20260904213105 61 0.0 0.0 0.00 0.00 0.00 10 993.6
20260904211530 61 0.0 0.0 0.00 0.00 0.00 10 993.4
20260904205955 60 0.0 0.0 0.00 0.00 0.00 10 993.3
20260904204421 60 0.0 0.0 0.00 0.00 0.00 10 993.1
20260904202846 60 0.0 0.0 0.00 0.00 0.00 10 993.0
20260904201311 60 0.0 0.0 0.00 0.00 0.00 10 992.9
20260904195736 60 0.0 0.0 0.00 0.00 0.00 10 992.7
20260904194201 60 0.0 0.0 0.00 0.00 0.00 10 992.8
20260904192626 60 0.0 0.0 0.00 0.00 0.00 10 992.6
20260904191051 60 0.0 0.0 0.00 0.00 0.00 10 992.5
20260904185516 60 0.0 0.0 0.00 0.00 0.00 10 992.3
20260904183941 60 0.0 0.0 0.00 0.00 0.00 10 992.1
20260904182406 61 0.0 0.0 0.00 0.00 0.00 10 991.9
20260904180831 61 0.0 0.0 0.00 0.00 0.00 10 991.9
20260904175256 61 0.0 0.0 0.00 0.00 0.00 10 991.5
20260904173722 62 0.0 0.0 0.00 0.00 0.00 10 991.1
20260904172147 63 0.0 0.0 0.00 0.00 0.00 10 991.0
20260904170612 63 0.0 0.0 0.00 0.00 0.00 10 991.3
20260904165037 63 0.0 0.0 0.00 0.00 0.00 97 990.7
20260904163502 64 0.0 0.0 0.00 0.00 0.00 91 990.7
20260904161927 67 0.0 0.0 0.00 0.00 0.00 78 990.2
20260904160352 70 0.0 0.0 0.00 0.00 0.00 68 989.3
20260904154817 75 0.0 0.0 0.00 0.00 0.00 61 989.0
20260904153242 76 0.0 0.0 0.00 0.00 0.00 60 988.8
20260904151707 77 0.0 0.0 0.00 0.00 0.00 57 988.9
20260904150132 78 0.0 0.0 0.00 0.00 0.00 56 989.0
20260904144558 81 0.0 0.0 0.00 0.00 0.00 53 989.0
20260904143023 83 0.0 0.0 0.00 0.00 0.00 52 988.9
20260904141448 85 0.0 0.0 0.00 0.00 0.00 50 989.0
20260904135913 86 0.0 0.0 0.00 0.00 0.00 50 989.2
20260904134338 87 0.0 0.0 0.00 0.00 0.00 50 989.3
20260904132803 83 0.0 0.0 0.00 0.00 0.00 55 989.1